Location: Bratislava
(48.1500°N, 17.1170°E)
Time: 06:16:12
(UTC+02:00)

N. Korean satellite - Pass Details

Date: 25 January 2019
Orbit: 457 x 508 km, 97.2° (Epoch: 18 April)

Event Time Altitude Azimuth Distance (km) Brightness Sun altitude
Rises 17:34:40 0° 181° (S) 2,582 10.5 -9.3°
Reaches altitude 10° 17:36:47 10° 188° (S) 1,710 9.7 -9.6°
Maximum altitude 17:40:20 44° 262° (W) 711 8.0 -10.2°
Drops below altitude 10° 17:43:56 10° 335° (NNW) 1,739 9.5 -10.8°
Sets 17:46:07 0° 342° (NNW) 2,632 10.3 -11.1°
